Preview of NWS' New Version of Forecast
This preview is not operational and should not be used for support decisions.
Latest weather observations around

Albuquerque, Albuquerque International Airport (KABQ)

Using English Units (Switch to International System of Units)
Date/ Time (MST) Wind (mph) Vis. (mi) Weather Sky Cond. Temp (°F) Rel. Humidity Wind Chill (°F) Heat Index (°F) Pressure Precip. (in)
Air Dwpt 6 hour Altimeter (inHg) Sea level (inHg) 1 hr 3 hr 6 hr
Max Min
Feb 19 19:52 SSW 26 10 Partly Cloudy and Breezy FEW070 SCT110 53 26     35%     29.58 29.47      
Feb 19 18:52   10 Partly Cloudy FEW070 SCT100 53 26     35%     29.57 29.46      
Feb 19 17:52   10 Mostly Cloudy SCT070 BKN090 54 30     40%     29.56 29.45      
Feb 19 16:52 SSW 21 10 Mostly Cloudy and Windy BKN070 BKN110 56 29     35%     29.55 29.42     0
Feb 19 15:52 SSW 24 10 Mostly Cloudy and Windy BKN070 BKN110 56 33     42%     29.56 29.42 0    
Feb 19 15:05 SSW 23 7 Light Rain FEW044 BKN050 BKN060 53 40     61%     29.57   0    
Feb 19 15:00 S 21 7 Light Rain and Thunderstorms and Hail FEW044 BKN050 BKN065 52 40     63%     29.57   0    
Feb 19 14:52   10 Light Rain SCT044 BKN050 BKN065 54 41     61%     29.56 29.44 0    
Feb 19 14:24 SSW 18 10 Light Rain FEW025 SCT041 BKN050 51 42     71%     29.58   0    
Feb 19 14:18   6 Light Rain and Thunderstorms and Hail FEW022 BKN041 BKN075 53 41     63%     29.59   0    
Feb 19 13:52   10 Partly Cloudy FEW027 SCT044 SCT070 56 40     55%     29.59 29.46 0 0  
Feb 19 12:52   10 Mostly Cloudy FEW050 BKN060 BKN100 55 38     52%     29.61 29.48      
Feb 19 11:52   10 Partly Cloudy FEW040 SCT055 56 32     40%     29.66 29.53      
Feb 19 10:52   10 Partly Cloudy FEW040 SCT045 54 33     45%     29.69 29.56      
Feb 19 09:52   10 Mostly Cloudy BKN033 52 38     59%     29.71 29.59      
Feb 19 08:52   10 Mostly Clear FEW030 FEW060 49 39     69%     29.71 29.59      
Feb 19 07:52   10 Mostly Cloudy FEW030 BKN070 46 39     76%     29.72 29.61      
Feb 19 06:52 S 10 10 Cloudy FEW030 BKN060 OVC080 44 37     76% 39   29.73 29.62      
Feb 19 05:52 S 10 10 Mostly Clear FEW060 43 34     70% 37   29.74 29.62      
Feb 19 04:52 SSW 13 10 Mostly Clear FEW060 47 32     56% 41   29.73 29.59      
Feb 19 03:52 S 14 10 Cloudy OVC065 48 33     56% 42   29.72 29.58      
Feb 19 02:52 S 8 10 Partly Cloudy SCT065 47 35     63% 43   29.75 29.61      
Feb 19 01:52 SSW 9 10 Mostly Cloudy SCT055 BKN100 48 36     63% 44   29.77 29.64      
Feb 19 00:52 SSW 9 10 Mostly Cloudy BKN060 BKN110 49 36     61% 45   29.77 29.63      
Feb 18 23:52   10 Mostly Cloudy BKN110 49 35     59%     29.78 29.65      
Feb 18 22:52 SW 3 10 Mostly Cloudy SCT090 BKN120 50 33     52% 49   29.79 29.67      
Feb 18 21:52 WSW 6 10 Mostly Clear FEW100 FEW180 50 31     48% 48   29.8 29.71      
Feb 18 20:52 W 9 10 Mostly Cloudy BKN100 53 30     41%     29.82 29.72      
Feb 18 19:52 W 10 10 Mostly Cloudy BKN110 55 28     35%     29.81 29.71      
Feb 18 18:52   10 Mostly Cloudy FEW040 BKN100 58 27     30%     29.8 29.7      
Feb 18 17:52   10 Partly Cloudy FEW050 SCT090 SCT250 60 28     29%     29.77 29.66      
Feb 18 16:52 SSW 8 10 Mostly Cloudy FEW040 BKN090 BKN120 BKN250 62 35     36%     29.76 29.64 0   0
Feb 18 15:52 SW 10 10 Mostly Cloudy SCT055 SCT090 BKN120 BKN300 62 35     36%     29.78 29.65      
Feb 18 15:39 SSW 10 10 Mostly Cloudy SCT055 BKN090 BKN120 BKN300 61 37     41%     29.78        
Feb 18 15:21 S 13 10 Mostly Cloudy SCT055 BKN090 BKN120 BKN300 60 40     47%     29.79        
Feb 18 14:52 S 16 10 Mostly Cloudy SCT055 BKN090 BKN120 BKN300 61 40     46%     29.8 29.69      
Feb 18 13:52 S 13 10 Mostly Cloudy FEW055 SCT065 BKN090 BKN300 60 38     44%     29.83 29.72      
Feb 18 13:29 SW 11 10 Mostly Cloudy SCT065 BKN085 BKN300 59 38     45%     29.85        
Feb 18 12:52 SSW 14 10 Mostly Cloudy SCT065 SCT085 BKN300 60 38     44%     29.88 29.77      
Feb 18 11:52 SW 13 10 Mostly Cloudy FEW055 FEW180 BKN300 55 37     51%     29.93 29.83      
Feb 18 10:52 Calm 10 Partly Cloudy FEW045 FEW180 SCT250 52 38     59%     29.97 29.89      
Feb 18 09:52 S 5 10 Partly Cloudy FEW035 SCT200 46 39     76% 44   30 29.93      
Feb 18 09:22 S 6 10 Partly Cloudy FEW007 FEW035 SCT190 45 40     82% 42   30.01        
Feb 18 08:52 S 5 10 Mostly Cloudy SCT007 BKN035 BKN180 42 40     92% 39   30.02 29.97      
Feb 18 08:18 ESE 6 10 Mostly Cloudy BKN007 BKN190 41 37     86% 37   30.02        
Feb 18 07:52 SE 3 10 Mostly Cloudy BKN009 BKN190 40 37     89% 38   30.02 29.97      
Feb 18 07:23 SSE 3 10 Mostly Cloudy BKN009 BKN190 40 37     89% 38   30.02        
Feb 18 07:08 SSE 7 10 Cloudy BKN010 OVC190 39 36     89% 34   30.02        
Feb 18 06:52 ESE 6 10 Mostly Cloudy SCT011 BKN190 38 35     89% 33   30.02 29.96      
Feb 18 05:52 Calm 10 Mostly Cloudy BKN200 39 34     82%     30.02 29.95      
Feb 18 04:52 SE 3 10 Mostly Cloudy BKN220 40 34     79% 38   30.02 29.93      
Feb 18 03:52 Calm 10 Mostly Cloudy BKN200 41 33     73%     30.04 29.94      
Feb 18 02:52 ESE 6 10 Mostly Cloudy BKN190 40 33     76% 36   30.05 29.97      
Feb 18 01:52 E 6 10 Mostly Cloudy BKN250 41 32     70% 37   30.08 30      
Feb 18 00:52 ESE 7 10 Mostly Cloudy BKN250 39 30     70% 34   30.09 30.02      
Feb 17 23:52 SE 6 10 Partly Cloudy SCT250 42 29     59% 38   30.1 30.02      
Feb 17 22:52 SE 6 10 Clear CLR 41 28     60% 37   30.12 30.07      
Feb 17 21:52 SE 5 10 Clear CLR 43 27     53% 40   30.15 30.09      
Feb 17 20:52 SSE 6 10 Mostly Clear FEW240 43 28     55% 39   30.15 30.1      
Feb 17 19:52 SE 8 10 Mostly Cloudy BKN240 44 29     55% 40   30.16 30.15      
Feb 17 18:52 SSW 8 10 Mostly Cloudy BKN250 51 25     36%     30.16 30.11      
Feb 17 17:52 S 9 10 Mostly Cloudy BKN250 53 24     32%     30.16 30.1      
Feb 17 16:52 S 7 10 Mostly Cloudy BKN250 55 22     27%     30.15 30.09      
Feb 17 13:52 NW 6 10 Mostly Cloudy BKN250 55 21     26%     30.17 30.09      
Feb 17 12:52 Calm 10 Mostly Cloudy BKN300 53 22     29%     30.2 30.13      
Feb 17 11:52 N 14 10 Mostly Cloudy BKN300 51 24     35%     30.22 30.16      
Feb 17 10:52 6 10 Mostly Cloudy BKN300 47 29     49% 44   30.23 30.18      
Feb 17 09:52 NNW 3 10 Partly Cloudy FEW200 SCT300 44 32     62% 43   30.24 30.19      
Feb 17 08:52 NW 5 10 Partly Cloudy FEW004 FEW040 SCT220 40 30     67% 37   30.24 30.2      
Feb 17 08:20 N 3 10 Fog/Mist FEW040 SCT220 35 34     96% 32   30.23        
Feb 17 08:15 NNE 3 0.25 Fog SKC SCT002 SCT220 34 33     96% 31   30.23        
Feb 17 08:00 E 3 0.25 Fog FEW004 FEW220 33 33     100% 30   30.22        
Feb 17 07:52 SSE 3 1 Fog/Mist FEW004 FEW220 33 32     96% 30   30.22 30.21      
Feb 17 07:35 Calm 1 Fog/Mist FEW004 FEW220 33 33     100%     30.21        
Feb 17 07:04 ESE 5 0.25 Fog VV001 31 31     100% 26   30.21        
Feb 17 06:57 ESE 3 0.75 Fog/Mist VV001 34 32     92% 31   30.21        
Feb 17 06:52 NNE 3 10 Mostly Clear FEW004 FEW220 36 33     89% 33   30.2 30.18      
Feb 17 05:52 NNW 5 10 Mostly Clear FEW004 FEW220 37 35     92% 33   30.2 30.17      
Feb 17 04:52 WNW 5 7 Mostly Clear FEW004 FEW220 37 36     96% 33   30.19 30.16      
Feb 17 03:52 Calm 10 Mostly Cloudy SCT004 BKN200 40 38     93%     30.16 30.12      
Feb 17 02:52 Calm 9 Cloudy OVC003 40 38     93%     30.16 30.11      
Feb 17 01:52 3 10 Cloudy OVC004 40 39     97% 38   30.16 30.11      
Feb 17 01:49 SSW 3 10 Cloudy OVC004 39 37     93% 37   30.15        
Feb 17 01:32 SW 3 10 Cloudy OVC006 40 37     89% 38   30.15        
Feb 17 01:16 S 3 10 Cloudy BKN008 OVC200 40 37     89% 38   30.15        
Feb 17 01:02 Calm 10 Cloudy SCT007 BKN015 OVC180 41 37     86%     30.16        
Feb 17 00:52 Calm 10 Mostly Cloudy FEW015 SCT030 BKN180 40 37     89%     30.16 30.11      
Feb 16 23:52 Calm 10 Cloudy FEW045 SCT130 OVC170 40 37     89%     30.14 30.09      
Feb 16 22:52 SE 7 10 Cloudy SCT130 OVC170 40 37     89% 35   30.12 30.08      
Feb 16 21:52 Calm 10 Cloudy FEW070 OVC150 42 36     79%     30.13 30.09      
Feb 16 20:52 S 7 10 Cloudy FEW070 OVC130 43 37     79% 39   30.13 30.09      
Jun 11 21:52 SSE 9 10 Clear   76 5     6%   74 29.94 29.67      
Jun 11 13:52 3 10 Clear CLR 86 9     5%   82 29.97 29.68      
Jun 11 10:52 Calm 10 Mostly Clear FEW220 79 15     9%   77 30.01 29.75      
Jun 10 06:52 ESE 5 10 Clear CLR 65 31     28%     30.01 29.72      
Jun 09 01:52   10 Clear   71 48     44%   70 30.04 29.76      
Jun 08 22:42   10 Mostly Cloudy FEW150 BKN250 76        %     30.04        
Jun 08 20:52 NNW 10 10 Mostly Cloudy FEW160 BKN250 86 19     8%   82 29.98 29.71      
Jun 08 19:52 NW 14 10 Mostly Cloudy SCT160 BKN250 90 14     6%   85 29.97 29.68      
Jun 08 00:52 SE 8 10 Mostly Cloudy FEW140 BKN250 70 47     44%     30.19 29.93      
Jun 07 07:52 E 10 10 Partly Cloudy SCT250 69 48     47%     30.24 29.99      
Jun 05 19:52 ENE 9 10 Mostly Cloudy BKN130 BKN250 89        %     30 29.72